• In Uzbekistan
  • List of Countries
  • For 7 days
  • Water Temperature
  • Satellite Maps
  • Weather Map
  • Weather Widgets
  • user-avatar
    Login

    Hourly Weather Konstantyna

    Today, 24 September, Monday

    Time Temperature Precipitation Wind Pressure Humidity
    00:00 +21°C° 0 mm 0 mps 714 mmHg 72%
    01:00 +20°C° 0 mm 0 mps 714 mmHg 72%
    02:00 +20°C° 0 mm 0 mps 714 mmHg 73%
    03:00 +20°C° 0 mm 0 mps 713 mmHg 73%
    04:00 +20°C° 0 mm 0 mps 713 mmHg 72%
    05:00 +20°C° 0 mm 0 mps 713 mmHg 71%
    06:00 +22°C° 0 mm 1 mps 713 mmHg 70%
    07:00 +23°C° 0 mm 1 mps 714 mmHg 62%
    08:00 +25°C° 0 mm 1 mps 714 mmHg 53%
    09:00 +27°C° 0 mm 1 mps 715 mmHg 45%
    10:00 +27°C° 0 mm 2 mps 715 mmHg 43%
    11:00 +28°C° 0 mm 2 mps 715 mmHg 41%
    12:00 +29°C° 0 mm 3 mps 715 mmHg 39%
    13:00 +29°C° 0 mm 3 mps 714 mmHg 40%
    14:00 +29°C° 0 mm 3 mps 714 mmHg 41%
    15:00 +29°C° 0 mm 4 mps 714 mmHg 43%
    16:00 +28°C° 0 mm 4 mps 714 mmHg 50%
    17:00 +27°C° 0 mm 3 mps 714 mmHg 57%
    18:00 +25°C° 0 mm 3 mps 714 mmHg 64%
    19:00 +25°C° 0 mm 3 mps 714 mmHg 69%
    20:00 +24°C° 0 mm 2 mps 714 mmHg 74%
    21:00 +23°C° 0 mm 2 mps 714 mmHg 79%
    22:00 +23°C° 0 mm 1 mps 714 mmHg 81%
    23:00 +23°C° 0 mm 1 mps 714 mmHg 83%

    Tomorrow, 25 September, Tuesday

    Time Temperature Precipitation Wind Pressure Humidity
    00:00 +22°C° 0 mm 1 mps 714 mmHg 85%
    01:00 +22°C° 0 mm 1 mps 714 mmHg 86%
    02:00 +22°C° 0 mm 1 mps 714 mmHg 87%
    03:00 +22°C° 0 mm 1 mps 714 mmHg 88%
    04:00 +22°C° 0 mm 1 mps 714 mmHg 88%
    05:00 +21°C° 0 mm 1 mps 714 mmHg 88%
    06:00 +21°C° 0 mm 1 mps 714 mmHg 88%
    07:00 +22°C° 0 mm 1 mps 714 mmHg 81%
    08:00 +23°C° 0 mm 1 mps 714 mmHg 75%
    09:00 +24°C° 0 mm 1 mps 715 mmHg 68%
    10:00 +26°C° 0 mm 2 mps 715 mmHg 62%
    11:00 +27°C° 0 mm 2 mps 715 mmHg 55%
    12:00 +28°C° 0 mm 2 mps 715 mmHg 49%
    13:00 +28°C° 0 mm 3 mps 714 mmHg 49%
    14:00 +28°C° 0 mm 3 mps 714 mmHg 49%
    15:00 +28°C° 0 mm 4 mps 714 mmHg 49%
    16:00 +27°C° 0 mm 4 mps 714 mmHg 55%
    17:00 +26°C° 0 mm 4 mps 714 mmHg 61%
    18:00 +24°C° 0 mm 3 mps 714 mmHg 67%
    19:00 +24°C° 0.5 mm 3 mps 714 mmHg 71%
    20:00 +23°C° 0.5 mm 2 mps 715 mmHg 74%
    21:00 +21°C° 0.5 mm 2 mps 715 mmHg 77%
    22:00 +22°C° 0.1 mm 1 mps 715 mmHg 79%
    23:00 +22°C° 0.1 mm 1 mps 715 mmHg 81%

    Day after tomorrow, 26 September, Wednesday

    Time Temperature Precipitation Wind Pressure Humidity
    00:00 +21°C° 0.1 mm 1 mps 714 mmHg 83%
    01:00 +21°C° 0 mm 1 mps 714 mmHg 84%
    02:00 +21°C° 0 mm 1 mps 714 mmHg 85%
    03:00 +20°C° 0 mm 1 mps 714 mmHg 86%
    04:00 +20°C° 0 mm 1 mps 714 mmHg 86%
    05:00 +20°C° 0 mm 1 mps 714 mmHg 85%
    06:00 +20°C° 0 mm 1 mps 714 mmHg 85%
    07:00 +21°C° 0 mm 1 mps 715 mmHg 76%
    08:00 +23°C° 0 mm 1 mps 715 mmHg 68%
    09:00 +24°C° 0 mm 2 mps 716 mmHg 59%
    10:00 +25°C° 0 mm 2 mps 716 mmHg 55%
    11:00 +26°C° 0 mm 3 mps 716 mmHg 51%
    12:00 +27°C° 0 mm 3 mps 716 mmHg 47%
    13:00 +27°C° 0 mm 4 mps 716 mmHg 49%
    14:00 +27°C° 0 mm 4 mps 716 mmHg 51%
    15:00 +27°C° 0 mm 4 mps 715 mmHg 53%
    16:00 +26°C° 0.7 mm 4 mps 715 mmHg 59%
    17:00 +25°C° 0.7 mm 4 mps 716 mmHg 65%
    18:00 +23°C° 0.7 mm 4 mps 716 mmHg 72%
    19:00 +23°C° 0.5 mm 4 mps 716 mmHg 74%
    20:00 +22°C° 0.5 mm 3 mps 716 mmHg 76%
    21:00 +22°C° 0.5 mm 3 mps 717 mmHg 78%
    22:00 +21°C° 0 mm 3 mps 717 mmHg 79%
    23:00 +21°C° 0 mm 3 mps 716 mmHg 80%

    27 September, Thursday

    Time Temperature Precipitation Wind Pressure Humidity
    00:00 +21°C° 0 mm 2 mps 716 mmHg 82%
    01:00 +21°C° 0 mm 2 mps 716 mmHg 82%
    02:00 +20°C° 0 mm 2 mps 716 mmHg 83%
    03:00 +20°C° 0 mm 2 mps 716 mmHg 84%
    04:00 +20°C° 0 mm 2 mps 716 mmHg 84%
    05:00 +21°C° 0 mm 1 mps 716 mmHg 84%
    06:00 +21°C° 0 mm 1 mps 716 mmHg 83%
    07:00 +21°C° 0 mm 2 mps 717 mmHg 75%
    08:00 +24°C° 0 mm 2 mps 717 mmHg 67%
    09:00 +25°C° 0 mm 2 mps 717 mmHg 59%
    10:00 +26°C° 0 mm 2 mps 717 mmHg 55%
    11:00 +27°C° 0 mm 2 mps 717 mmHg 50%
    12:00 +28°C° 0 mm 2 mps 717 mmHg 46%
    13:00 +28°C° 0 mm 2 mps 716 mmHg 46%
    14:00 +28°C° 0 mm 3 mps 716 mmHg 46%
    15:00 +28°C° 0 mm 3 mps 715 mmHg 46%
    16:00 +27°C° 0 mm 3 mps 715 mmHg 50%
    17:00 +26°C° 0 mm 3 mps 715 mmHg 54%
    18:00 +25°C° 0 mm 3 mps 715 mmHg 59%
    19:00 +24°C° 0 mm 2 mps 715 mmHg 62%
    20:00 +24°C° 0 mm 2 mps 715 mmHg 65%
    21:00 +23°C° 0 mm 1 mps 715 mmHg 69%
    22:00 +23°C° 0 mm 1 mps 714 mmHg 70%
    23:00 +22°C° 0 mm 1 mps 714 mmHg 71%

    28 September, Friday

    Time Temperature Precipitation Wind Pressure Humidity
    00:00 +22°C° 0 mm 1 mps 714 mmHg 72%
    01:00 +22°C° 0 mm 1 mps 713 mmHg 73%
    02:00 +20°C° 0 mm 0 mps 713 mmHg 73%
    03:00 +19°C° 0 mm 0 mps 713 mmHg 74%
    04:00 +21°C° 0 mm 1 mps 713 mmHg 74%
    05:00 +21°C° 0 mm 1 mps 713 mmHg 75%
    06:00 +21°C° 0 mm 1 mps 712 mmHg 75%
    07:00 +22°C° 0 mm 1 mps 713 mmHg 70%
    08:00 +23°C° 0 mm 1 mps 713 mmHg 64%
    09:00 +25°C° 0 mm 1 mps 713 mmHg 59%
    10:00 +26°C° 0 mm 2 mps 713 mmHg 53%
    11:00 +27°C° 0 mm 2 mps 713 mmHg 48%
    12:00 +28°C° 0 mm 3 mps 713 mmHg 43%
    13:00 +28°C° 0 mm 3 mps 712 mmHg 42%
    14:00 +28°C° 0 mm 3 mps 712 mmHg 42%
    15:00 +28°C° 0 mm 4 mps 712 mmHg 41%
    16:00 +27°C° 0 mm 3 mps 712 mmHg 46%
    17:00 +25°C° 0 mm 3 mps 712 mmHg 51%
    18:00 +24°C° 0 mm 3 mps 711 mmHg 56%
    19:00 +23°C° 0 mm 2 mps 712 mmHg 60%
    20:00 +23°C° 0 mm 1 mps 712 mmHg 63%
    21:00 +22°C° 0 mm 1 mps 712 mmHg 66%
    22:00 +22°C° 0 mm 1 mps 711 mmHg 67%
    23:00 +19°C° 0 mm 0 mps 711 mmHg 68%

    29 September, Saturday

    Time Temperature Precipitation Wind Pressure Humidity
    00:00 +19°C° 0 mm 0 mps 711 mmHg 69%
    01:00 +19°C° 0 mm 0 mps 711 mmHg 70%
    02:00 +19°C° 0 mm 0 mps 710 mmHg 70%
    03:00 +18°C° 0 mm 0 mps 710 mmHg 71%
    04:00 +18°C° 0 mm 0 mps 710 mmHg 70%
    05:00 +18°C° 0 mm 0 mps 710 mmHg 70%
    06:00 +18°C° 0 mm 0 mps 710 mmHg 69%
    07:00 +22°C° 0 mm 1 mps 711 mmHg 62%
    08:00 +24°C° 0 mm 1 mps 711 mmHg 55%
    09:00 +26°C° 0 mm 1 mps 711 mmHg 47%
    10:00 +27°C° 0 mm 1 mps 711 mmHg 44%
    11:00 +28°C° 0 mm 2 mps 711 mmHg 40%
    12:00 +29°C° 0 mm 2 mps 711 mmHg 37%
    13:00 +30°C° 0 mm 2 mps 711 mmHg 36%
    14:00 +30°C° 0 mm 3 mps 711 mmHg 36%
    15:00 +30°C° 0 mm 3 mps 710 mmHg 36%
    16:00 +29°C° 0 mm 3 mps 711 mmHg 40%
    17:00 +27°C° 0 mm 2 mps 711 mmHg 44%
    18:00 +26°C° 0 mm 2 mps 711 mmHg 49%
    19:00 +26°C° 0 mm 2 mps 711 mmHg 51%
    20:00 +25°C° 0 mm 1 mps 711 mmHg 54%
    21:00 +24°C° 0 mm 1 mps 711 mmHg 56%
    22:00 +24°C° 0 mm 1 mps 711 mmHg 56%
    23:00 +24°C° 0 mm 1 mps 711 mmHg 56%
    Show more

    3.3.7123123